Regional Weather Roundup
Issued by NWS

Home | Current Version | Previous Version | Text Only | Print | Product List | Glossary Off
Versions: 1 2 3 4 5 6 7 8 9 10 11 12 13 14 15 16 17 18 19 20 21 22 23 24 25 26 27 28 29 30 31 32 33 34 35 36 37 38 39 40 41 42 43 44 45 46 47 48 49 50

000
ASUS43 KMPX 271501
RWRMN
WEATHER ROUNDUP FOR MINNESOTA
NATIONAL WEATHER SERVICE TWIN CITIES/CHANHASSEN MN
900 AM CST THU NOV 27 2014


NOTE: "FAIR" INDICATES FEW OR NO CLOUDS BELOW 12,000 FEET WITH NO
SIGNIFICANT WEATHER AND/OR OBSTRUCTIONS TO VISIBILITY. N/A MEANS
CURRENT SKY AND/OR WEATHER CONDITIONS ARE NOT AVAILABLE.

MNZ060>063-068>070-271600-
   Twin Cities Metro

CITY           SKY/WX    TMP DP  RH WIND       PRES   REMARKS
TWIN CITIES    SUNNY      0  -6  76 NW10      30.52R WCI -16
ST PAUL        SUNNY      1  -5  75 NW7       30.54R WCI -12
CRYSTAL        PTSUNNY    0  -6  76 NW7       30.52R WCI -13
BLAINE         SUNNY      0  -4  85 NW5       30.50R WCI -10
LAKEVILLE      MOSUNNY   -4  -8  84 NW7       30.50R WCI -18
EDEN PRAIRIE   MOSUNNY    0  -7  72 NW9       30.51R WCI -15
SOUTH ST PAUL  SUNNY      1  -6  71 N6        30.52R WCI -10
LAKE ELMO      FAIR       1  -4  78 N3        30.51R
$$
MNZ001>005-007-008-013>017-022>024-027-028-271600-
   Northwest Minnesota

CITY           SKY/WX    TMP DP  RH WIND       PRES   REMARKS
BEMIDJI        PTCLDY   -18 -24  75 CALM      30.44S
HALLOCK        PTCLDY    -9 -15  77 S7        30.47S WCI -24
ROSEAU         PTCLDY   -11 -18  70 S5        30.45F WCI -23
WARROAD        MOCLDY   -13 -18  77 CALM      30.45S
THIEF RVR FALL PTCLDY   -11 -11 100 S3        30.47S
CROOKSTON      PTCLDY   -11 -15  84 SE5       30.52S WCI -23
FOSSTON        PTCLDY   -15 -18  84 CALM      30.47S
DETROIT LAKES  MOCLDY    -8 -11  84 CALM      30.46F
MOORHEAD       PTCLDY    -9 -11  92 CALM      30.52F
PARK RAPIDS    PTCLDY   -11 -15  82 CALM      30.45R
MAHNOMEN       FAIR     -13 -18  80 S3        30.47F
$$
MNZ006-009>011-018-025>026-271600-
   North Central Minnesota

CITY           SKY/WX    TMP DP  RH WIND       PRES   REMARKS
BAUDETTE       MOCLDY   -15 -19  82 CALM      30.44F
FLAG ISLAND    PTCLDY   -15 -18  84 CALM      30.44S
INTL FALLS     PTCLDY   -14 -19  79 CALM      30.44S
WASKISH        MOCLDY   -11 -17  77 CALM      30.45F
BIG FORK       CLEAR    -11 -18  70 CALM      30.44S
LONGVILLE      MOSUNNY   -8 -11  84 CALM      30.45S
GRAND RAPIDS   PTSUNNY   -9 -11  92 NW7       30.43R WCI -24
CRANE LAKE     PTCLDY   -15 -18  84 CALM      30.48R
ORR            MOSUNNY  -13 -18  77 CALM      30.40S
COOK           MOSUNNY  -15 -18  84 CALM      30.43S
WALKER         FAIR     -13 -18  79 CALM      30.45S
$$
MNZ012-019>021-037-271600-
   Northeast Minnesota

CITY           SKY/WX    TMP DP  RH WIND       PRES   REMARKS
DULUTH         MOSUNNY   -6 -13  71 NW10      30.39R WCI -24
ELY            MOSUNNY  -11 -17  77 CALM      30.40S
HIBBING        MOSUNNY   -8 -14  74 NW5       30.43S WCI -19
EVELETH        FLURRIES  -8 -13  77 CALM      30.42S
DULUTH HARBOR  MOSUNNY    0  -8  71 CALM      30.51R
TWO HARBORS    MOSUNNY    1  -8  66 NW9       30.39S WCI -14
SILVER BAY     MOSUNNY    0  -9  65 NW6       30.39S WCI -12
GRAND MARAIS     N/A      0 -11  59 N18G33    30.41R WCI -21
G MARAIS ARPRT MOSUNNY   -9 -15  77 NW7       30.30R WCI -24
$$
MNZ029>031-032-039>041-046>048-054>057-064-271600-
   West Central Minnesota

CITY           SKY/WX    TMP DP  RH WIND       PRES   REMARKS
FERGUS FALLS   CLEAR     -9 -15  77 CALM      30.54F
WHEATON        PTCLDY    -8 -11  84 CALM      30.53F
MORRIS         SUNNY     -8 -13  77 CALM      30.49F
ALEXANDRIA     SUNNY     -5  -9  83 NW3       30.47S
ELBOW LAKE     FAIR      -9 -13  83 CALM      30.49F FOG
WADENA         MOSUNNY   -8 -11  84 CALM      30.46S
GLENWOOD       MOSUNNY   -8 -11  84 W5        30.48S WCI -19
APPLETON       MOSUNNY   -6 -11  77 CALM      30.52F
BENSON         MOSUNNY   -9 -15  77 CALM      30.51S
ORTONVILLE     MOSUNNY   -6 -11  77 CALM      30.50F
MADISON        MOSUNNY   -8 -13  77 CALM      30.52F
WILLMAR        FAIR      -8 -13  77 CALM      30.51S
$$
MNZ033>034-036-042>043-049>051-058-059-271600-
   Central Minnesota

CITY           SKY/WX    TMP DP  RH WIND       PRES   REMARKS
ST CLOUD       MOSUNNY   -3 -10  72 NW7       30.51R WCI -16
SAUK CENTRE    FAIR      -6 -11  81 NW3       30.49S
PAYNESVILLE    PTSUNNY   -9 -13  84 CALM      30.51R
AITKIN         MOSUNNY   -2  -9  71 CALM      30.46R
PINE RIVER     MOSUNNY   -8 -11  84 CALM      30.48S
BRAINERD       MOSUNNY   -6 -10  83 N5        30.48R WCI -17
STAPLES        PTSUNNY   -8 -11  84 W5        30.48R WCI -19
LONG PRAIRIE   FAIR      -6 -11  77 CALM      30.48S
LITTLE FALLS   PTSUNNY   -6 -11  77 W5        30.50S WCI -17
LITCHFIELD     MOSUNNY   -2  -8  78 NW5       30.51R WCI -12
BUFFALO        MOSUNNY   -2  -8  78 W6        30.53R WCI -14
MAPLE LAKE     MOSUNNY   -3  -6  87 W3        30.52S
$$
MNZ037-044-045-052-053-271600-
   East Central Minnesota

CITY           SKY/WX    TMP DP  RH WIND       PRES   REMARKS
PRINCETON      MOSUNNY    0  -8  71 CALM      30.50R
MORA             N/A    N/A N/A N/A MISG        N/A
CAMBRIDGE      MOSUNNY    0  -9  65 N5        30.49R WCI -10
RUSH CITY      MOSUNNY   -1  -8  75 NW5       30.50R WCI -12
MOOSE LAKE     MOSUNNY   -4  -9  77 CALM      30.46R
HINCKLEY       FAIR       0  -6  78 CALM      30.48S
CLOQUET        MOSUNNY   -6 -11  77 NW8       30.43R WCI -21
MCGREGOR       MOSUNNY   -6  -9  84 N6        30.46S WCI -18
$$
MNZ071>073-080-081-089-090-097-098-271600-
   Southwest Minnesota

CITY           SKY/WX    TMP DP  RH WIND       PRES   REMARKS
MONTEVIDEO     MOSUNNY   -4  -9  77 CALM      30.53F HAZE
GRANITE FALLS  MOSUNNY   -8 -13  81 CALM      30.54F
CANBY          MOSUNNY   -6 -11  81 SW3       30.52S
MARSHALL       MOSUNNY   -9 -15  77 NW5       30.50R WCI -21
REDWOOD FALLS  MOSUNNY   -7 -12  79 NW6       30.53R WCI -20
OLIVIA         MOSUNNY   -4  -9  77 NW6       30.52R WCI -16
PIPESTONE      PTSUNNY   -2  -9  71 CALM      30.44R
WINDOM         MOSUNNY   -8 -11  84 CALM      30.48R
WORTHINGTON    PTSUNNY   -8 -11  84 NW3       30.47R
JACKSON        MOSUNNY   -8 -13  77 NW5       30.48R WCI -19
TRACY          MOSUNNY   -7 -12  81 NW5       30.50R WCI -18
SLAYTON        PTSUNNY   -5 -10  79 CALM      30.47R
$$
MNZ065>067-074>077-082>085-091>093-271600-
   South Central Minnesota

CITY           SKY/WX    TMP DP  RH WIND       PRES   REMARKS
MANKATO        PTSUNNY   -8 -15  71 NW5       30.51R WCI -19
NEW ULM        CLOUDY   -15 -18  84 NW5       30.53R WCI -27
ST JAMES       PTSUNNY   -9 -15  77 NW6       30.53R WCI -23
FAIRMONT       MOSUNNY   -8 -11  84 NW8       30.49R WCI -23
GLENCOE        PTSUNNY   -4  -8  82 NW5       30.51R WCI -15
FARIBAULT      PTSUNNY   -6  -9  84 NW3       30.50R
OWATONNA       PTSUNNY   -9 -17  70 NW3       30.49R
WASECA         PTSUNNY  -13 -18  77 CALM      30.52R
ALBERT LEA     MOSUNNY   -8 -13  77 W3        30.47S
$$
MNZ078>079-086>088-094>096-271600-
   Southeast Minnesota

CITY           SKY/WX    TMP DP  RH WIND       PRES   REMARKS
ROCHESTER      MOSUNNY   -5  -9  83 NW9       30.44R WCI -22
RED WING         N/A      3  -6  66 NW5       30.50R WCI  -6
STANTON        MOSUNNY   -7 -12  79 NW5       30.49R WCI -18
DODGE CENTER   MOSUNNY   -4  -8  84 NW8       30.45R WCI -19
WINONA         MOSUNNY    9   1  72 NW10      30.49F WCI  -6
AUSTIN         MOSUNNY   -6  -9  84 NW9       30.46R WCI -22
PRESTON        SUNNY      0  -4  80 NW9       30.44R WCI -15
$$
ABBREVIATIONS USED IN REMARKS
   TC - TEMPERATURES IN CELSIUS
  WCI - WIND CHILL INDEX
   HX - HEAT INDEX
  VSB - VISIBILITY
$$


USA.gov is the U.S. government's official web portal to all federal, state and local government web resources and services.